« Back
NWS Peachtree City, Ga » Text Product » GA Regional Weather Roundup


Printer-friendly Version
Current Version              Previous Versions:   1  2  3  4  5  6  7  8  9  

Regional Weather Roundup

062
ASUS42 KFFC 011003
RWRGA
WEATHER ROUNDUP FOR GEORGIA
NATIONAL WEATHER SERVICE PEACHTREE CITY GA
500 AM EST SUN MAR 01 2015

NOTE: "FAIR" INDICATES FEW OR NO CLOUDS BELOW 12,000 FEET WITH NO
SIGNIFICANT WEATHER AND/OR OBSTRUCTIONS TO VISIBILITY.

* = USE WITH CAUTION. THE STATIONS MARKED WITH AN ASTERISK MAY NOT
REPORT WEATHER SUCH AS PRECIPITATION, FOG, OR THUNDER AND ARE NOT
QUALITY CONTROLLED BY NWS.

THE REMARK "TC" DENOTES TEMPERATURE READING IN DEGREES CELSIUS.

GAZ001>058-011100-
NORTH GEORGIA

CITY           SKY/WX    TMP DP  RH WIND       PRES   REMARKS
ATLANTA        CLOUDY    38  34  85 E10       30.48S WCI  31
ATHENS         CLOUDY    34  32  92 NE9       30.51F FOG     WCI  27
CHAMBLEE       CLOUDY    36  31  82 E6        30.48F WCI  31
PEACHTREE CITY CLOUDY    39  35  86 E7        30.48R WCI  34
ROME           CLOUDY    41  32  70 SE8G17    30.45S
WEST ATLANTA   CLOUDY    38  32  79 NE10      30.48S WCI  31
GAINESVILLE    CLOUDY    33  31  92 NE9       30.50S FOG     WCI  25
CARTERSVILLE   CLOUDY    39  30  70 VRB6      30.47F WCI  35


CITY           SKY/WX    TMP DP  RH WIND       PRES   REMARKS
DALTON*        MOCLDY    39  32  75 CALM      30.45S
MARIETTA       CLOUDY    37  32  81 E8        30.46F WCI  31
$$

GAZ059>098-102>109-011100-
CENTRAL GEORGIA

CITY           SKY/WX    TMP DP  RH WIND       PRES   REMARKS
AUGUSTA-BUSH   LGT RAIN  37  35  92 NE7       30.53S FOG     WCI  32
AUGUSTA-DANIEL LGT RAIN  38  35  89 N8        30.51F FOG     WCI  32
COLUMBUS       LGT RAIN  42  40  92 E12       30.44F FOG
MACON          LGT RAIN  40  39  97 NE8       30.48F FOG     WCI  34
ROBINS AFB     DRIZZLE   41  40  96 NE6       30.47F


CITY           SKY/WX    TMP DP  RH WIND       PRES   REMARKS
LAGRANGE*      CLOUDY    46  41  84 E5        30.45S
SYLVANIA*      DRIZZLE   39  39  98 NE7       30.50R WCI  34
MILLEDGEVILLE* LGT RAIN  39  39 100 NE6       30.50S WCI  35
$$

GAZ099>101-110>166-011100-
SOUTH GEORGIA

CITY           SKY/WX    TMP DP  RH WIND       PRES   REMARKS
SAVANNAH       CLOUDY    42  38  85 N6        30.47R
VALDOSTA       CLOUDY    45  44  97 NE7       30.41F FOG
ALMA           CLOUDY    43  41  93 VRB7      30.44S FOG
ST SIMONS      CLOUDY    47  45  93 NE18G25   30.42S
ALBANY         CLOUDY    44  42  93 NE15      30.45F FOG
MOODY AFB      CLOUDY    45  43  93 NE8       30.41F
BRUNSWICK      CLOUDY    46  45  93 NE7       30.44R


CITY           SKY/WX    TMP DP  RH WIND       PRES   REMARKS
BAINBRIDGE*    CLOUDY    46  46 100 E12       30.42F FOG
MOULTRIE*      CLOUDY    45  45 100 NE5       30.43R FOG
VIDALIA*       CLOUDY    41  41 100 NE12      30.47S
WAYCROSS*      CLOUDY    47  46  96 NE7       30.44R FOG
DOUGLAS*       CLOUDY    45  45 100 NE7       30.46R FOG
$$



USA.gov is the U.S. government's official web portal to all federal, state and local government web resources and services.